Tracking 28081 objects as of 27-Sep-2023
HD Live streaming from Space Station
objects crossing your sky now

STARLINK-3513

Track STARLINK-3513 now!
10-day predictions
STARLINK-3513 is classified as:


NORAD ID: 51756
Int'l Code: 2022-016AU
Perigee: 545.9 km
Apogee: 547.9 km
Inclination: 53.2 °
Period: 95.4 minutes
Semi major axis: 6917 km
RCS: Unknown
Launch date: February 21, 2022
Source: United States (US)
Launch site: AIR FORCE EASTERN TEST RANGE (AFETR)
Your satellite tracking list
Your tracking list is empty




NASA's NSSDC Master Catalog

Two Line Element Set (TLE):
1 51756U 22016AU  23269.69448005  .00003267  00000-0  22323-3 0  9996
2 51756  53.2184   6.9115 0001429  86.4601 273.6554 15.08843590 88597
Source of the keplerian elements: AFSPC